www.pogodaiklimat.ru

Погода и климат >> Архив погоды >> Украина >> Любашевка


ПОГОДА в Любашевке

  • Прогноз погоды в Любашевке
  • Монитор погоды в Любашевке

АРХИВ ПОГОДЫ в Любашевке

Время (UTC), дата Ветер
(напр.,м/с)
 
Видим.   Явления Облачность Т
(С)
Тd
(С)
f
(%)
Тe
(С)
Тes
(С)
Комфортность P
(гПа)
Po
(гПа)
Тmin
(С)
Tmax
(С)
R
(мм)
R24
(мм)
S
(см)
00 10.09 штиль 0 20 км ясно +13.6 +2.9 48 +13 +13 1021.0 999.2
03 10.09 СВ 2 20 км 9/0
[Ci fib]
+11.8 +1.7 50 +11 +11 1021.6 999.6
06 10.09 В 2 20 км 1/0
[Ci fib]
+17.6 +5.9 46 +18 +21 1022.0 1000.4 +10.6
09 10.09 ЮВ 4 20 км 1/0
[Ci fib]
+24.9 +5.7 29 +25 +32 комфорт 1021.4 1000.4
12 10.09 В 3 20 км 8/0
[Ci fib]
+26.6 +4.4 24 +26 +32 жарко 1020.6 999.7
15 10.09 В 4 20 км 8/0
[Ci fib]
+26.1 +4.6 25 +25 +26 комфорт 1020.4 999.5
18 10.09 В 2 20 км 9/0
[Ci fib]
+19.9 +2.7 32 +21 +21 комфорт 1022.2 1000.8 +27.1
21 10.09 ЮВ 2 20 км 6/0
[Ci fib]
+18.2 +2.9 36 +19 +19 1023.5 1001.9
00 11.09 С 2 20 км 3/0
[Ci fib]
+13.0 +2.8 50 +13 +13 1024.5 1002.5
03 11.09 СВ 1 20 км ясно +12.2 +2.0 50 +13 +13 1025.2 1003.2
06 11.09 В 3 20 км 3/0
[Ci fib]
+18.4 +4.5 40 +19 +21 1025.9 1004.3 +11.3
09 11.09 В 5 20 км 6/0
[Ci fib]
+25.3 +3.3 24 +24 +29 комфорт 1025.6 1004.5
12 11.09 В 4 20 км 8/0
[Ci]
+27.5 +3.3 21 +26 +31 жарко 1024.5 1003.6
15 11.09 В 2 20 км 6/0
[Ci fib]
+26.8 +2.0 20 +25 +26 комфорт 1024.2 1003.2
18 11.09 В 2 20 км 8/0
[Ci]
+20.6 +2.0 29 +22 +22 комфорт 1025.2 1003.8 +28.1
21 11.09 ЮВ 1 20 км 9/0
[Ci]
+18.2 +2.9 36 +19 +19 1025.9 1004.3
00 12.09 С 1 20 км 8/0
[Ci]
+12.8 +3.9 55 +13 +13 1026.7 1004.7
03 12.09 С 2 20 км 6/0
[Ci]
+11.2 +2.0 53 +10 +10 1027.1 1004.9
06 12.09 СВ 2 20 км 10/0
[Ac trans Cs]
+17.1 +4.1 42 +17 +20 1027.2 1005.5 +10.3
09 12.09 СВ 3 20 км 4/0
[Ci fib]
+25.8 +3.7 24 +25 +33 комфорт 1026.5 1005.4
12 12.09 С 1 20 км 6/0
[Ci fib]
+28.0 +2.9 20 +26 +35 жарко 1025.1 1004.2
15 12.09 СВ 2 20 км 3/0
[Ci fib]
+27.4 +3.2 21 +26 +27 жарко 1024.3 1003.4
18 12.09 штиль 0 20 км 4/0
[Ci fib]
+19.3 +3.5 35 +19 +19 1025.6 1004.1 +28.3
21 12.09 штиль 0 20 км ясно +16.4 +2.1 38 +16 +16 1025.6 1003.9
00 13.09 СЗ 1 20 км ясно +13.8 +2.1 45 +14 +14 1025.7 1003.8
03 13.09 штиль 0 20 км 6/0
[Ci fib]
+11.4 +2.9 56 +11 +11 1025.8 1003.7
06 13.09 С 1 20 км 10/0
[Ci fib]
+17.4 +5.1 44 +18 +21 1026.2 1004.5 +10.5
09 13.09 З 1 20 км 1/0
[Ci sp]
+26.4 +4.2 24 +25 +37 комфорт 1024.9 1003.9
12 13.09 СЗ 2 20 км ясно +28.4 +3.3 20 +27 +35 жарко 1023.0 1002.2
15 13.09 С 1 20 км ясно +27.5 +3.3 21 +26 +27 жарко 1021.8 1000.9
18 13.09 СЗ 1 20 км 3/0
[Ac cast]
+21.9 +4.9 33 +22 +22 комфорт 1022.7 1001.4 +28.9
21 13.09 штиль 0 20 км ясно +17.2 +6.7 50 +17 +17 1022.9 1001.3
00 14.09 штиль 0 20 км ясно +15.0 +6.8 58 +15 +15 1023.1 1001.3
03 14.09 СЗ 1 20 км 5/3 600 м
[Sc Ac cast]
+13.7 +7.7 67 +14 +14 1022.9 1001.0
06 14.09 СЗ 1 20 км 3/0
[Ci]
+19.0 +9.5 54 +21 +24 комфорт 1023.1 1001.6 +13.3
09 14.09 С 2 20 км 10/3 600 м
[Sc Ac trans]
+21.1 +11.1 53 +23 +26 комфорт 1022.7 1001.4
12 14.09 С 5 20 км 10/6 600 м
[Sc Ac trans]
+21.9 +11.6 52 +24 +25 комфорт 1022.4 1001.2
15 14.09 С 5 20 км 4/0
[Ac trans]
+19.9 +2.7 32 +20 +20 1023.1 1001.7
18 14.09 С 1 20 км 3/0
[Ac trans]
+14.6 +2.5 44 +15 +15 1025.1 1003.2 +23.6
21 14.09 С 3 20 км ясно +12.8 +2.1 48 +12 +12 1026.5 1004.5
00 15.09 СЗ 2 20 км ясно +9.3 +2.2 61 +8 +8 1027.3 1005.0
03 15.09 СЗ 1 20 км 3/0
[Ac trans]
+6.9 +1.6 69 +6 +6 1027.3 1004.8
06 15.09 СЗ 1 20 км 4/0
[Ci fib]
+12.8 +3.8 54 +13 +16 1027.4 1005.4 +6.6 285
09 15.09 З 3 20 км 3/1 1000 м
[Cu hum Ci fib]
+18.9 +3.1 35 +19 +26 1026.1 1004.5
12 15.09 З 2 20 км 5/0
[Ci fib]
+20.9 +2.7 30 +22 +29 комфорт 1023.7 1002.3
15 15.09 З 2 20 км 4/0
[Ci fib]
+21.5 +2.2 28 +21 +22 комфорт 1021.6 1000.3
18 15.09 ЮЗ 2 20 км 4/0
[Ci fib]
+15.6 +2.4 41 +16 +16 1021.1 999.4 +22.4
21 15.09 Ю 3 20 км 6/0
[Ci fib]
+13.5 +1.5 44 +13 +13 1020.1 998.3
00 16.09 Ю 3 20 км ясно +12.0 +3.7 57 +11 +11 1018.6 996.7
03 16.09 Ю 3 20 км 1/0
[Ci fib]
+11.1 +4.7 65 +9 +9 1017.1 995.2
06 16.09 ЮЗ 3 20 км 8/0
[Ci fib]
+14.9 +5.9 55 +14 +16 1016.2 994.6 +10.7
09 16.09 З 3 20 км 3/0
[Ci fib]
+22.8 +7.4 37 +24 +31 комфорт 1014.7 993.7
12 16.09 З 4 20 км 1/0
[Ci fib]
+25.7 +7.3 31 +26 +31 жарко 1012.1 991.3
15 16.09 З 3 20 км 1/0
[Ci fib]
+25.7 +7.3 31 +26 +26 жарко 1010.6 989.9
18 16.09 З 2 20 км ясно +20.9 +7.5 42 +23 +23 комфорт 1011.5 990.4 +26.4

 

Местоположение метеостанции Любашевка (Одесская область, Украина): широта 47.85 долгота 30.27 высота над уровнем моря 183 м.

В архиве по умолчанию представлена погода в Любашевке за последнюю неделю. Архивные данные за месяц целиком и за предыдущие месяцы, начиная с января 2011 года, Вы можете получить, выбрав интересующий диапазон дат из раскрывающегося списка и нажав кнопку "Ввод!".


*Определитесь, кто Вы:
робот инопланетянин человек

Внимание! Время в таблицах - всемирное. Для получения местного времени необходимо прибавить поправку, которая равна 2 ч.

Смотрите также архив погоды в соседних городах и на ближайших метеорологических станциях:

Погода в Первомайске (Николаевская область, Украина) (49 км)
Погода в Гайвороне (Кировоградская область, Украина) (63 км)
Погода в Затишье (Одесская область, Украина) (65 км)
Погода в Вознесенске (Николаевская область, Украина) (85 км)
Погода в Рыбнице (Молдова) (94 км)
Погода в Помошной (Кировоградская область, Украина) (94 км)
Погода в Сербке (Одесская область, Украина) (99 км)
Погода в Умани (Черкасская область, Украина) (102 км)
Погода в Раздельной (Одесская область, Украина) (112 км)
Погода в Дубоссарах (Молдова) (114 км)

Пояснения к столбцам:

Ветер - указаны скорость ветра в м/с - средняя за 10 мин, порывы в срок и между сроками (в фигурных скобках) и направление, откуда дует ветер: С - северный, СВ - северо-восточный, В - восточный, ЮВ - юго-восточный, Ю - южный, ЮЗ - юго-западный, З - западный, СЗ - северо-западный.
Видимость - горизонтальная дальность видимости в метрах или километрах. При видимости от 1 до 10 км при отсутствии осадков обычно наблюдается дымка, при ухудшении видимости до 1 км и менее - туман. В сухую погоду видимость может ухудшаться дымом, пылью или мглою.
Явления - указаны атмосферные явления, наблюдавшиеся в срок или в последний час перед сроком; фигурными скобками обозначены явления, наблюдавшиеся между сроками (за 1-3 часа до срока); квадратными скобками обозначены град или гололедные отложения с указанием их диаметра в мм.
Облачность - указаны через наклонную черту общая и нижняя облачность в баллах и высота нижней границы облаков в метрах; квадратными скобками обозначены формы облаков: Ci - перистые, Cs - перисто-слоистые, Cc - перисто-кучевые, Ac - высококучевые, As - высокослоистые, Sc - слоисто-кучевые, Ns - слоисто-дождевые, Cu - кучевые, Cb - кучево-дождевые. Подробнее классификацию облаков см. в Атласе облаков (PDF).
T - Температура воздуха - температура, измеренная на высоте 2 м над землей.
Td - Температура точки росы - температура, при понижении до которой содержащийся в воздухе водяной пар достигнет насыщения.
f - Относительная влажность воздуха - влажноcть воздуха, измеренная на высоте 2 м над землей.
Te - Эффективная температура - температура, которую ощущает одетый по сезону человек в тени. Характеристика душности погоды. При расчете учитывается влияние влажности воздуха и скорости ветра на теплоощущения человека.
Tes - Эффективная температура на солнце - температура, которую ощущает человек, с поправкой на солнечный нагрев. Характеристика знойности погоды. Зависит от высоты солнца над горизонтом, облачности и скорости ветра. Ночью, в пасмурную погоду, а также при ветре 12 м/с и более поправка равна нулю.
P - Атмосферное давление - приведенное к уровню моря атмосферное давление.
Po - Атмосферное давление - измеренное на уровне метеостанции атмосферное давление.
Tmin - Минимальная температура - минимум температуры воздуха на высоте 2 м над землей.
Tmax - Максимальная температура - максимум температуры воздуха на высоте 2 м над землей.
R - Количество осадков - Количество выпавших осадков за период времени, мм. При наведении курсора мыши на число - период времени, за который выпало указанное количество осадков.
R24 - Количество осадков - Количество выпавших осадков за 24 часа, мм.
S - Снежный покров - Высота снежного покрова, см. При наведении курсора мыши на число - состояние снежного покрова и степень покрытия местности в баллах.